Accueil
METAR-TAF:

METAR-TAF

Aéroports :

Aéroport de Troyes - Barberey

Troyes, France

latitude: 48-20N, longitude: 004-01E, altitude: 118 m

Observation

Le bulletin a été fait il y a 30 minutes, à 11:00 UTC
Vent 4 kt de nord-ouest
Température 0°C
Humidité 100%
Pression 1013 hPa
Visibilité: 1300 m
Quelques nuages à une hauteur de 100 ft
Nuages épars à une hauteur de 5800 ft
brume

METAR: LFQB 211100Z AUTO 31004KT 2000 1300 BR FEW001 SCT058 M00/M00 Q1013

Heure: 12:30 (11:30 UTC)


TAF: absent

Observations et prévisions météorologiques de plus de 4000 aéroports (messages METAR et TAF).

Les stations disponibles sont représentées par des disques jaunes et rouges sur la carte.

Passer la souris dessus pour voir le nom de la station.

Cliquer dessus pour voir les observations et prévisions météorologiques.

Pour changer de carte: cliquez sur les boutons verts avec une croix noire pour zoomer, sur le bouton vert avec un tiret pour effectuer un zoom arrière, ou sur les flèches vertes pour les cartes adjacentes.


METAR-TAF: